EW1577 Weather Reports


Display with metric or nautical units.
time (UTC)temp
F
wind
direction
speed
MPH
gust
MPH
rain 1hr
in
rain 24hr
in
rain mn
in
humidity
%
barometer
mb
20180223082151 42 90 2.0 6.0 0.00 0.00 0.00 98 1025.2
20180223081651 42 248 1.0 5.0 0.00 0.00 0.00 98 1026.3
20180223081145 42 68 2.0 4.0 0.00 0.00 0.00 98 1026.0
20180223080646 42 113 2.0 6.0 0.00 0.00 0.00 98 1026.0
20180223080144 42 68 3.0 6.0 0.00 0.00 0.00 98 1025.5
20180223075644 42 68 2.0 4.0 0.00 0.00 0.00 98 1025.5
20180223075140 42 68 2.0 4.0 0.00 0.00 0.00 98 1026.6
20180223074642 42 113 2.0 5.0 0.00 0.00 0.00 98 1026.3
20180223074139 41 270 3.0 5.0 0.00 0.00 0.00 98 1026.3
20180223073634 41 68 2.0 3.0 0.00 0.00 0.00 98 1026.3
20180223073124 41 45 1.0 4.0 0.00 0.00 0.00 98 1026.6
20180223072621 41 68 2.0 5.0 0.00 0.00 0.00 98 1026.6
20180223072123 41 68 3.0 5.0 0.00 0.00 0.00 98 1027.3
20180223071611 41 45 2.0 6.0 0.00 0.00 0.00 98 1027.0
20180223071058 41 113 3.0 6.0 0.00 0.00 0.00 98 1027.0
20180223070559 41 113 2.0 6.0 0.00 0.00 0.00 98 1027.0
20180223070059 41 90 2.0 5.0 0.00 0.00 0.00 98 1027.3
20180223065552 41 270 3.0 5.0 0.00 0.00 0.00 98 1027.0
20180223065053 41 90 3.0 6.0 0.00 0.00 0.00 98 1026.6
20180223064554 41 68 2.0 6.0 0.00 0.00 0.00 98 1027.0
20180223064053 41 45 3.0 5.0 0.00 0.00 0.00 98 1027.0
20180223063546 41 90 2.0 3.0 0.00 0.00 0.00 98 1027.0
20180223063047 41 113 2.0 4.0 0.00 0.00 0.00 98 1027.3
20180223062539 41 90 2.0 4.0 0.00 0.00 0.00 98 1027.0
20180223062036 41 90 2.0 6.0 0.00 0.00 0.00 98 1027.0
20180223061534 41 90 3.0 6.0 0.00 0.00 0.00 98 1027.7
20180223061041 41 68 2.0 4.0 0.00 0.00 0.00 98 1027.7
20180223060533 41 113 1.0 3.0 0.00 0.00 0.00 98 1027.3
20180223060036 41 90 2.0 4.0 0.00 0.00 0.00 98 1027.3
20180223055529 41 23 2.0 4.0 0.00 0.00 0.00 98 1027.0
20180223055026 41 68 2.0 4.0 0.00 0.00 0.00 98 1028.0
20180223054521 41 68 2.0 4.0 0.00 0.00 0.00 98 1027.7
20180223054020 41 248 2.0 4.0 0.00 0.00 0.00 98 1028.0
20180223053510 41 135 2.0 4.0 0.00 0.00 0.00 98 1028.3
20180223052958 41 225 2.0 4.0 0.00 0.00 0.00 98 1028.3
20180223052447 42 68 1.0 5.0 0.00 0.00 0.00 98 1028.3
20180223051946 42 45 3.0 5.0 0.00 0.00 0.00 98 1028.0
20180223051446 42 90 2.0 4.0 0.00 0.00 0.00 98 1028.0
20180223050948 42 90 2.0 3.0 0.00 0.00 0.00 98 1028.0
20180223050444 42 90 2.0 5.0 0.00 0.00 0.00 98 1028.0
20180223045940 42 0 2.0 5.0 0.00 0.00 0.58 98 1028.0
20180223045441 42 158 3.0 5.0 0.00 0.00 0.58 98 1028.0
20180223044936 42 113 2.0 3.0 0.00 0.00 0.58 98 1028.0
20180223044432 42 68 2.0 4.0 0.00 0.00 0.58 98 1028.3
20180223043927 42 68 3.0 4.0 0.00 0.00 0.58 98 1028.3
20180223043428 42 68 2.0 4.0 0.00 0.00 0.58 98 1028.3
20180223042925 42 45 2.0 6.0 0.00 0.00 0.58 98 1028.3
20180223042426 42 68 3.0 6.0 0.00 0.00 0.58 98 1028.7
20180223041919 42 113 2.0 3.0 0.00 0.00 0.58 98 1028.3
20180223041408 42 45 2.0 5.0 0.00 0.00 0.58 98 1029.0
20180223040903 42 90 2.0 5.0 0.00 0.00 0.58 98 1028.3
20180223040354 42 68 2.0 6.0 0.00 0.00 0.58 98 1028.7
20180223035854 42 0 3.0 6.0 0.00 0.00 0.58 98 1028.0
20180223035350 42 45 3.0 6.0 0.00 0.00 0.58 98 1028.0
20180223034850 42 90 3.0 7.0 0.00 0.00 0.58 98 1028.7
20180223034349 42 68 3.0 7.0 0.00 0.00 0.58 98 1029.0
20180223033838 42 90 3.0 7.0 0.00 0.00 0.58 98 1029.4
20180223033336 42 68 3.0 5.0 0.00 0.00 0.58 98 1028.7
20180223032836 42 90 3.0 5.0 0.00 0.00 0.58 98 1029.0
20180223032332 42 90 2.0 8.0 0.00 0.00 0.58 98 1029.8
20180223031834 42 113 3.0 8.0 0.00 0.00 0.58 98 1029.4
20180223031331 42 315 2.0 5.0 0.00 0.00 0.58 98 1028.7
20180223030830 42 90 3.0 5.0 0.00 0.00 0.58 98 1028.3
20180223030332 42 68 3.0 6.0 0.00 0.00 0.58 98 1028.7
20180223025829 42 68 3.0 6.0 0.00 0.00 0.58 98 1028.7
20180223025330 42 113 3.0 5.0 0.00 0.00 0.58 98 1028.7
20180223024828 42 68 3.0 5.0 0.00 0.00 0.58 98 1028.7
20180223024331 42 90 3.0 5.0 0.00 0.00 0.58 98 1028.0
20180223023825 42 90 3.0 4.0 0.00 0.00 0.58 98 1028.7
20180223023326 42 68 2.0 5.0 0.00 0.00 0.58 98 1028.7
20180223022818 42 113 3.0 5.0 0.00 0.00 0.58 98 1028.3
20180223022316 42 45 2.0 5.0 0.00 0.00 0.58 98 1028.3
20180223021817 42 45 3.0 5.0 0.00 0.00 0.58 98 1029.0
20180223021316 42 23 2.0 4.0 0.00 0.00 0.58 98 1028.7
20180223020815 42 23 3.0 5.0 0.00 0.00 0.58 98 1029.8
20180223020313 42 68 3.0 5.0 0.00 0.00 0.58 98 1029.4
20180223015813 42 23 3.0 5.0 0.00 0.00 0.58 98 1029.8
20180223015305 42 45 3.0 5.0 0.00 0.00 0.58 98 1028.7
20180223014805 42 90 3.0 5.0 0.00 0.00 0.58 98 1029.8
20180223014305 42 45 2.0 5.0 0.00 0.00 0.58 98 1029.0
20180223013805 42 68 2.0 3.0 0.00 0.00 0.58 98 1029.4
20180223013258 42 90 1.0 3.0 0.00 0.00 0.58 98 1029.4
20180223012750 42 68 1.0 5.0 0.00 0.00 0.58 98 1030.1
20180223012247 42 315 2.0 5.0 0.00 0.00 0.58 98 1030.1
20180223011748 42 45 2.0 4.0 0.00 0.00 0.58 98 1029.4
20180223011245 42 90 2.0 4.0 0.00 0.00 0.58 98 1029.4
20180223010739 42 45 2.0 4.0 0.00 0.00 0.58 98 1029.4
20180223010244 42 45 2.0 6.0 0.00 0.00 0.58 98 1029.4
20180223005717 42 68 3.0 6.0 0.00 0.00 0.58 98 1029.4
20180223005215 42 45 3.0 5.0 0.00 0.00 0.58 98 1029.4
20180223004717 42 90 2.0 6.0 0.00 0.00 0.58 98 1030.1
20180223004211 42 90 2.0 6.0 0.00 0.00 0.58 98 1029.4
20180223003710 42 180 2.0 4.0 0.00 0.00 0.58 98 1029.4
20180223003209 42 90 3.0 5.0 0.00 0.00 0.58 98 1029.0
20180223002708 42 113 3.0 5.0 0.00 0.00 0.58 98 1029.4
20180223002205 42 68 2.0 4.0 0.00 0.00 0.58 98 1029.4
20180223001705 42 338 2.0 6.0 0.00 0.00 0.58 98 1029.8
20180223001205 42 90 3.0 7.0 0.00 0.00 0.58 98 1029.8
20180223000700 42 90 4.0 7.0 0.00 0.00 0.58 98 1028.7
20180223000157 42 45 4.0 7.0 0.00 0.00 0.58 98 1028.7
20180222235659 42 45 4.0 7.0 0.00 0.00 0.58 98 1028.7
20180222235156 43 68 4.0 7.0 0.00 0.00 0.58 98 1029.0
20180222234651 43 45 4.0 7.0 0.00 0.00 0.58 98 1028.7
20180222234139 43 90 4.0 7.0 0.00 0.00 0.58 98 1028.7
20180222233640 43 0.0 0.0 0.00 0.00 0.58 98
20180222232948 43 45 4.0 9.0 0.00 0.68 0.58 98 1029.0
20180222232442 43 113 5.0 7.0 0.00 0.68 0.58 98 1029.0
20180222231936 43 68 4.0 7.0 0.00 0.68 0.58 98 1028.3
20180222231436 43 90 3.0 6.0 0.00 0.68 0.58 98 1028.7
20180222230927 43 90 4.0 7.0 0.00 0.68 0.58 98 1029.0
20180222230422 43 90 5.0 8.0 0.00 0.68 0.58 98 1028.7
20180222225921 44 68 4.0 8.0 0.00 0.68 0.58 98 1028.7
20180222225422 44 45 4.0 7.0 0.00 0.68 0.58 98 1029.8
20180222224921 44 293 2.0 5.0 0.00 0.68 0.58 98 1029.8
20180222224420 44 68 3.0 8.0 0.00 0.68 0.58 98 1029.8
20180222223919 44 68 3.0 8.0 0.00 0.68 0.58 98 1030.1
20180222223416 44 68 4.0 6.0 0.00 0.68 0.58 98 1029.0
20180222222909 44 68 4.0 7.0 0.00 0.68 0.58 98 1029.4
20180222222407 45 90 4.0 7.0 0.00 0.68 0.58 98 1029.0
20180222221852 45 68 3.0 7.0 0.00 0.68 0.58 98 1029.0
20180222221343 45 45 4.0 8.0 0.00 0.68 0.58 98 1030.1
20180222220841 45 68 5.0 8.0 0.00 0.68 0.58 98 1029.8
20180222220339 45 45 4.0 7.0 0.00 0.68 0.58 98 1029.4
20180222215833 45 90 2.0 8.0 0.00 0.68 0.58 98 1029.0
20180222215332 45 90 5.0 8.0 0.00 0.68 0.58 98 1029.0
20180222214830 45 315 4.0 8.0 0.00 0.68 0.58 98 1029.0
20180222214327 45 23 5.0 8.0 0.00 0.68 0.58 98 1029.4
20180222213834 46 45 4.0 8.0 0.00 0.68 0.58 98 1029.8
20180222213331 46 0 4.0 6.0 0.00 0.68 0.58 98 1029.8
20180222212831 46 90 3.0 6.0 0.00 0.68 0.58 98 1029.8
20180222212325 46 45 3.0 6.0 0.00 0.68 0.58 98 1030.1
20180222211820 46 45 3.0 6.0 0.00 0.68 0.58 98 1030.5
20180222211322 46 23 4.0 10.0 0.00 0.68 0.58 98 1029.4
20180222210820 46 45 5.0 10.0 0.00 0.68 0.58 98 1029.8
20180222210322 46 90 4.0 6.0 0.00 0.68 0.58 98 1029.4
20180222205814 46 45 4.0 8.0 0.00 0.68 0.58 98 1029.0
20180222205320 46 90 4.0 9.0 0.00 0.68 0.58 98 1029.4
20180222204810 46 45 6.0 10.0 0.00 0.68 0.58 98 1029.8
20180222204311 46 45 6.0 10.0 0.00 0.68 0.58 98 1029.8
20180222203812 46 68 5.0 9.0 0.00 0.68 0.58 98 1028.7
20180222203307 46 68 5.0 8.0 0.00 0.68 0.58 98 1029.8
20180222202805 46 68 4.0 7.0 0.00 0.68 0.58 98 1029.4
20180222202305 46 68 2.0 6.0 0.00 0.68 0.58 98 1029.0
20180222201800 46 90 4.0 6.0 0.00 0.68 0.58 98 1030.1
20180222201256 46 23 4.0 9.0 0.00 0.68 0.58 98 1029.4
20180222200757 47 45 6.0 9.0 0.00 0.68 0.58 98 1029.8
20180222200258 47 68 5.0 8.0 0.00 0.68 0.58 98 1029.4
20180222195748 46 23 4.0 9.0 0.00 0.68 0.58 98 1029.8
20180222195235 46 0 6.0 9.0 0.00 0.68 0.58 98 1030.1
20180222194736 47 45 6.0 9.0 0.00 0.68 0.58 98 1029.8
20180222194235 47 45 6.0 9.0 0.00 0.68 0.58 98 1029.8
20180222193730 47 90 4.0 8.0 0.00 0.68 0.58 98 1029.0
20180222193235 48 68 5.0 13.0 0.00 0.68 0.58 98 1028.7
20180222192730 47 113 7.0 13.0 0.00 0.68 0.58 98 1029.4
20180222192233 47 23 6.0 14.0 0.00 0.68 0.58 98 1028.7
20180222191724 47 45 8.0 14.0 0.00 0.68 0.58 98 1028.7
20180222191225 47 23 8.0 12.0 0.00 0.68 0.58 98 1028.7
20180222190728 47 68 7.0 12.0 0.00 0.68 0.58 98 1029.0
20180222190222 47 0 7.0 13.0 0.00 0.68 0.58 98 1028.7
20180222185718 47 68 7.0 15.0 0.00 0.68 0.58 98 1028.7
20180222185217 46 0 9.0 15.0 0.00 0.68 0.58 98 1028.7
20180222184708 46 68 8.0 15.0 0.00 0.68 0.58 98 1029.0
20180222184158 47 68 10.0 15.0 0.00 0.68 0.58 98 1029.8
20180222183658 47 0 9.0 14.0 0.00 0.68 0.58 98 1029.0
20180222183156 47 68 8.0 14.0 0.00 0.68 0.58 98 1029.4
20180222182645 47 45 8.0 13.0 0.00 0.68 0.58 98 1029.4
20180222182147 46 338 7.0 12.0 0.00 0.68 0.58 98 1029.4
20180222181635 47 338 6.0 10.0 0.00 0.68 0.58 98 1030.8
20180222181134 46 293 4.0 15.0 0.00 0.68 0.58 98 1030.1
20180222180630 46 23 7.0 15.0 0.00 0.68 0.58 98 1030.8
20180222180127 46 45 6.0 15.0 0.00 0.68 0.58 98 1029.8
20180222175621 46 90 7.0 15.0 0.00 0.68 0.58 98 1030.1
20180222175118 46 90 7.0 12.0 0.00 0.68 0.58 98 1030.8
20180222174625 46 90 7.0 11.0 0.00 0.68 0.58 98 1030.8
20180222174117 46 68 5.0 9.0 0.00 0.68 0.58 98 1031.5
20180222173618 45 23 5.0 9.0 0.00 0.68 0.58 98 1031.5
20180222173116 44 0 7.0 9.0 0.00 0.68 0.58 98 1031.1
20180222172612 44 90 4.0 8.0 0.00 0.68 0.58 98 1031.5
20180222172114 44 23 5.0 8.0 0.00 0.68 0.58 98 1031.1
20180222171609 44 0 5.0 12.0 0.00 0.68 0.58 98 1031.5
20180222171115 44 90 7.0 12.0 0.00 0.68 0.58 98 1031.1
20180222170608 44 23 6.0 9.0 0.00 0.68 0.58 98 1031.1
20180222170059 43 113 5.0 12.0 0.00 0.68 0.58 98 1031.1
20180222165550 44 68 7.0 12.0 0.00 0.68 0.58 98 1031.1
20180222165053 43 23 4.0 8.0 0.00 0.68 0.58 98 1030.8
20180222164545 42 45 6.0 8.0 0.00 0.68 0.58 98 1031.5
20180222164039 42 45 5.0 8.0 0.00 0.68 0.58 98 1031.5
20180222163529 40 23 5.0 8.0 0.00 0.68 0.58 98 1031.1
20180222163023 40 293 5.0 11.0 0.00 0.68 0.58 98 1031.1
20180222162524 40 45 6.0 11.0 0.00 0.68 0.58 98 1031.5
20180222162023 40 270 4.0 10.0 0.00 0.68 0.58 98 1031.8
20180222161523 40 293 6.0 10.0 0.00 0.68 0.58 98 1032.2
20180222161022 40 0 5.0 8.0 0.00 0.68 0.58 98 1031.5
20180222160521 41 270 4.0 8.0 0.00 0.68 0.58 98 1031.8
20180222160015 41 315 4.0 8.0 0.00 0.68 0.58 98 1031.5
20180222155510 42 315 4.0 9.0 0.00 0.68 0.58 98 1031.5
20180222154959 42 338 4.0 9.0 0.00 0.68 0.58 98 1031.5
20180222154450 42 0 4.0 7.0 0.00 0.68 0.58 98 1031.5
20180222153951 42 338 4.0 7.0 0.00 0.68 0.58 98 1031.5
20180222153446 41 23 4.0 12.0 0.00 0.68 0.58 98 1030.1
20180222152941 42 68 8.0 12.0 0.00 0.68 0.58 98 1030.1
20180222152428 42 113 7.0 15.0 0.00 0.68 0.58 98 1029.4
20180222151921 40 45 9.0 17.0 0.01 0.68 0.58 98 1029.4
20180222151414 40 23 10.0 17.0 0.01 0.68 0.58 98 1027.7
20180222150913 40 23 10.0 16.0 0.01 0.68 0.58 98 1026.0
20180222150414 39 90 9.0 19.0 0.01 0.68 0.58 98 1026.3
20180222145911 38 23 11.0 19.0 0.02 0.68 0.58 98 1026.0
20180222145406 38 68 9.0 18.0 0.02 0.68 0.58 98 1026.6
20180222144903 38 68 11.0 18.0 0.02 0.68 0.58 98 1026.6
20180222144406 37 45 6.0 15.0 0.03 0.68 0.58 98 1027.3
20180222143904 37 23 8.0 16.0 0.03 0.68 0.58 98 1028.7
20180222143402 37 23 9.0 16.0 0.04 0.68 0.58 98 1028.0
20180222142905 37 113 7.0 12.0 0.04 0.68 0.58 98 1029.0
20180222142404 37 23 6.0 11.0 0.05 0.68 0.58 98 1029.0
20180222141903 37 113 7.0 11.0 0.05 0.67 0.57 98 1029.4
20180222141356 36 45 6.0 10.0 0.05 0.67 0.57 98 1029.4
20180222140847 36 23 6.0 10.0 0.06 0.67 0.57 98 1029.4
20180222140351 36 68 4.0 8.0 0.06 0.66 0.56 98 1029.8
20180222135845 36 23 5.0 9.0 0.06 0.66 0.56 98 1030.1
20180222135341 36 23 6.0 9.0 0.08 0.66 0.56 98 1029.4
20180222134836 36 45 5.0 9.0 0.09 0.66 0.56 98 1029.0
20180222134329 36 68 4.0 9.0 0.09 0.65 0.55 98 1029.4
20180222133821 36 90 4.0 9.0 0.10 0.65 0.55 98 1029.8
20180222133321 36 68 4.0 9.0 0.09 0.64 0.54 98 1030.1
20180222132822 36 68 5.0 8.0 0.10 0.64 0.54 98 1029.4
20180222132321 36 338 4.0 10.0 0.09 0.63 0.53 98 1029.8
20180222131813 36 68 6.0 10.0 0.08 0.62 0.52 98 1030.8
20180222131304 36 68 4.0 9.0 0.08 0.62 0.52 98 1029.4
20180222130801 36 113 5.0 8.0 0.08 0.61 0.51 98 1029.4
20180222130302 36 68 6.0 10.0 0.07 0.60 0.50 98 1029.4
20180222125801 36 0 7.0 15.0 0.08 0.60 0.50 98 1029.4
20180222125259 36 68 5.0 15.0 0.07 0.58 0.48 98 1029.8
20180222124803 36 90 6.0 11.0 0.07 0.57 0.47 98 1029.4
20180222124259 36 90 6.0 11.0 0.07 0.56 0.46 98 1029.4
20180222123757 36 68 5.0 10.0 0.08 0.55 0.45 98 1029.4
20180222123249 36 113 6.0 10.0 0.10 0.55 0.45 98 1029.4
20180222122745 36 68 7.0 10.0 0.10 0.54 0.44 98 1029.8
20180222122239 36 68 4.0 10.0 0.11 0.54 0.44 98 1028.7
20180222121742 36 90 5.0 10.0 0.11 0.54 0.44 98 1029.4
20180222121240 36 45 6.0 10.0 0.12 0.54 0.44 98 1029.0
20180222120741 36 45 8.0 12.0 0.12 0.53 0.43 98 1028.3
20180222120230 35 45 6.0 12.0 0.12 0.52 0.42 98 1028.7
20180222115723 35 90 6.0 16.0 0.13 0.52 0.42 98 1028.3
20180222115211 35 45 8.0 16.0 0.13 0.51 0.41 98 1028.7
20180222114711 35 90 5.0 11.0 0.13 0.50 0.40 98 1028.3
20180222114211 35 68 5.0 10.0 0.13 0.49 0.39 98 1029.8
20180222113711 35 68 5.0 10.0 0.11 0.47 0.37 98 1028.3
20180222113210 35 68 5.0 8.0 0.09 0.45 0.35 98 1029.0
20180222112709 35 0 5.0 8.0 0.09 0.44 0.34 98 1029.0
20180222112204 35 23 4.0 10.0 0.09 0.43 0.33 98 1028.7
20180222111700 35 113 6.0 10.0 0.09 0.43 0.33 98 1029.4
20180222111159 35 45 5.0 7.0 0.09 0.42 0.32 98 1029.0
20180222110701 35 113 4.0 8.0 0.08 0.41 0.31 98 1029.8
20180222110159 35 270 5.0 10.0 0.07 0.39 0.29 98 1029.0
20180222105658 35 90 6.0 11.0 0.07 0.39 0.29 98 1029.8
20180222105156 35 90 6.0 11.0 0.07 0.38 0.28 98 1028.7
20180222104656 35 0 4.0 12.0 0.06 0.37 0.27 98 1029.0
20180222104148 35 45 6.0 12.0 0.06 0.36 0.26 98 1029.0
20180222103649 35 338 5.0 9.0 0.06 0.36 0.26 98 1029.0
20180222103147 35 68 4.0 8.0 0.07 0.36 0.26 98 1029.4
20180222102642 35 338 4.0 7.0 0.07 0.35 0.25 98 1029.8
20180222102139 35 338 4.0 8.0 0.07 0.34 0.24 98 1029.8
20180222101634 35 23 5.0 8.0 0.08 0.34 0.24 98 1029.0
20180222101133 35 90 4.0 8.0 0.08 0.33 0.23 98 1028.7
20180222100621 35 158 4.0 8.0 0.09 0.33 0.23 98 1029.0
20180222100112 35 45 5.0 10.0 0.08 0.32 0.22 98 1029.4
20180222095605 35 315 5.0 15.0 0.09 0.32 0.22 98 1029.0
20180222095106 35 68 6.0 15.0 0.09 0.31 0.21 98 1029.0
20180222094601 35 23 5.0 9.0 0.10 0.31 0.21 98 1029.0
20180222094048 35 90 5.0 9.0 0.09 0.30 0.20 98 1029.0
20180222093546 35 225 5.0 9.0 0.10 0.30 0.20 98 1029.4
20180222093046 35 113 6.0 10.0 0.09 0.29 0.19 98 1029.4
20180222092540 35 68 4.0 10.0 0.09 0.28 0.18 98 1029.8
20180222092041 35 45 5.0 8.0 0.08 0.27 0.17 98 1030.1
20180222091534 35 23 4.0 10.0 0.08 0.26 0.16 98 1029.4
20180222091032 35 135 5.0 10.0 0.08 0.25 0.15 98 1029.8
20180222090538 35 0 4.0 8.0 0.08 0.24 0.14 98 1030.1
20180222090034 35 68 4.0 6.0 0.08 0.24 0.14 98 1029.4
20180222085524 35 23 4.0 6.0 0.07 0.23 0.13 98 1030.5
20180222085016 35 68 4.0 6.0 0.07 0.22 0.12 98 1029.8
20180222084515 35 203 4.0 7.0 0.06 0.21 0.11 98 1029.8
20180222084008 35 0 4.0 7.0 0.06 0.21 0.11 98 1029.8
20180222083500 35 180 2.0 5.0 0.06 0.20 0.10 98 1031.1
20180222083006 35 293 3.0 9.0 0.06 0.20 0.10 98 1030.5